Regional Weather Roundup
Issued by NWS Wakefield, VA

Home | Current Version | Previous Version | Text Only | Print | Product List | Glossary On
Versions: 1 2 3 4 5 6 7 8 9 10 11 12 13 14 15 16 17 18 19 20 21 22 23 24 25 26 27
000
ASUS41 KAKQ 170910
RWRAKQ

REGIONAL WEATHER ROUNDUP
NATIONAL WEATHER SERVICE WAKEFIELD VA
500 AM EDT THU APR 17 2014

Note: "fair" indicates few or no clouds below 12,000 feet with no
significant weather and/or obstructions to visibility. * = Denotes
station may not report precipitation (e.g., rain,snow,etc.),
thunder or fog.

VAZ042-051-052>054-056-171000-
NORTHERN VIRGINIA

CITY           SKY/WX    TMP DP  RH WIND       PRES   REMARKS
WASH NATIONAL  CLEAR     40  28  62 NE5       30.58R
DULLES         CLEAR     28  24  85 CALM      30.56R
FORT BELVOIR   CLEAR     30  28  94 CALM      30.58R
QUANTICO       CLEAR     34  29  82 NW3       30.58R
FREDERICKSBRG* CLEAR     32  28  86 CALM      30.56S
STAFFORD*      CLEAR     28  28 100 CALM      30.60S
WARRENTON      CLEAR     28  28 100 CALM      30.55S
CULPEPER*      CLEAR     30  25  80 CALM      30.57R
MANASSAS*      CLEAR     28  28 100 CALM      30.57R
LEESBURG*      CLEAR     34  28  80 N5        30.58R
WINCHESTER     CLEAR     30  23  74 CALM      30.54R
$$

VAZ048-049-060>072-079>083-171000-
CENTRAL AND SOUTH CENTRAL VIRGINIA...AND NORTH CENTRAL NORTH CAROLINA

CITY           SKY/WX    TMP DP  RH WIND       PRES   REMARKS
RICHMOND       CLEAR     35  28  75 CALM      30.54R
CHESTERFIELD*  NOT AVBL
HANOVER        FAIR      30  27  88 CALM      30.56R
TAPPAHANNOCK*  FAIR      30  28  90 CALM      30.55S
CHARLOTTSVILLE CLEAR     30  25  81 NW3       30.54R
ORANGE*        CLEAR     30  27  86 CALM      30.56R
LOUISA*        CLEAR     28  25  86 CALM      30.53R
FARMVILLE*     CLEAR     28  27  93 CALM      30.52R
SOUTH HILL*    CLEAR     34  28  80 CALM      30.56S
ROANOKE RAPIDS SUNNY     34  32  93 N3        30.50S
RALEIGH        PTCLDY    34  28  79 NE3       30.49R
$$

VAZ088>098-171000-
SOUTHEAST VIRGINIA

CITY           SKY/WX    TMP DP  RH WIND       PRES   REMARKS
NORFOLK        CLEAR     42  31  64 NE14      30.51R
VIRGINIA BEACH PTCLDY    42  32  67 NE12      30.50S
NORFOLK NAVAL  PTCLDY    43  31  62 NE14      30.53R
WEST POINT*    CLEAR     33  31  90 CALM      30.56R
NEWPORT NEWS   CLEAR     44  31  60 NE8       30.53R
LANGLEY AFB    PTCLDY    41  32  70 E14       30.54R
FORT EUSTIS    CLEAR     37  34  87 CALM      30.51S
WILLIAMSBURG*  CLEAR     37  34  87 CALM      30.54S
FRANKLIN*      CLEAR     36 N/A N/A CALM      30.52S
WAKEFIELD      CLEAR     31  28  89 CALM      30.53R
$$

VAZ020-022-025-037-045-171000-
WESTERN AND SOUTHWEST VIRGINIA

CITY           SKY/WX    TMP DP  RH WIND       PRES   REMARKS
STAUNTON*      CLEAR     27  22  81 CALM      30.53S
HOT SPRINGS VA CLEAR     27  14  59 SE7       30.43S
LYNCHBURG      CLEAR     36  21  54 CALM      30.53R
DANVILLE       CLEAR     30  25  81 CALM      30.52R
MARTINSVILLE   CLEAR     28  27  95 CALM      30.54R
ROANOKE        CLEAR     33  20  58 CALM      30.53R
BLACKSBURG     CLEAR     30  21  69 CALM      30.49R
DUBLIN*        CLEAR     28  22  77 CALM      30.48R
MARION*        CLEAR     32  21  64 NE9       30.46R
HILLSVILLE*    CLEAR     30  14  51 E3        30.46R
RICHLANDS*     SUNNY     39  21  47 SE10G22   30.35R
WISE*          CLEAR     37  19  48 S8        30.35R
ABINGDON*      CLEAR     38  22  51 E10       30.39R
$$

MDZ021>025-VAZ099-100-171000-
SOUTHERN MARYLAND AND THE DELMARVA PENINSULA

CITY           SKY/WX    TMP DP  RH WIND       PRES   REMARKS
PATUXENT RIVER CLEAR     37  29  72 NE6       30.55S
BAY BRIDGE APT CLEAR     36  30  80 CALM      30.58R
LEONARDTOWN    CLEAR     32  30  93 CALM      30.57R
DOVER          CLEAR     39  28  64 NE10      30.53F
GEORGETOWN     CLEAR     32  28  85 CALM      30.56S
EASTON         CLEAR     33  32  97 CALM      30.60S
CAMBRIDGE      CLEAR     34  32  93 NE3       30.56S
SALISBURY      CLEAR     34  29  82 CALM      30.55R
OCEAN CITY     CLEAR     42  29  59 E8        30.55R
WALLOPS ISLAND CLEAR     43  30  60 E15       30.54R
ACCOMACK*      NOT AVBL
$$

NCZ012>017-030>032-171000-
EASTERN NORTH CAROLINA

CITY           SKY/WX    TMP DP  RH WIND       PRES   REMARKS
ELIZABETH CITY CLEAR     43  34  70 N13       30.47S
AHOSKIE*       CLEAR     33  31  93 N3        30.51S
EDENTON*       CLEAR     37  33  87 N7        30.48R
CURRITUCK*     CLEAR     43  34  69 N10G18    30.49R
KILL DEVIL HLS PTCLDY    44  37  75 N8G16     30.43S
MANTEO         PTCLDY    44  37  77 NE20G26   30.44S
CAPE HATTERAS  MOCLDY    47  42  83 N14G28    30.39S
GOLDSBORO      CLEAR     37  31  79 NE6       30.46R
WASHINGTON     CLEAR     39  34  83 N7        30.46S
GREENVILLE     CLEAR     34  32  93 CALM      30.47S
NEW BERN       CLEAR     41  33  73 N8        30.45R
WILMINGTON     CLEAR     40  32  73 NE12      30.42R
$$

VAZ048-171000-
ELSEWHERE

CITY           SKY/WX    TMP DP  RH WIND       PRES   REMARKS
HARRISBURG PA  PTCLDY    34  19  54 CALM      30.58R
BALTIMORE      PTCLDY    32  26  78 CALM      30.57R
ANNAPOLIS      CLEAR     41  33  73 E3        30.57R
ANDREWS AFB    CLEAR     31  26  82 VRB1      30.57R
WILMINGTON DE  CLEAR     38  22  52 E8        30.60R
PHILADELPHIA   CLEAR     37  17  44 NE9       30.61R
WILDWOOD NJ*   CLEAR     34  27  75 N6        30.58R
ATLANTIC CITY  CLEAR     29  25  85 N6        30.58R
HENDERSON NC   CLEAR     32  30  92 CALM      30.50S
GREENSBORO     CLEAR     35  26  69 NE3       30.48R
ROCKY MOUNT      N/A    N/A N/A N/A MISG      30.49S
FAYETTEVILLE   CLEAR     35  30  82 N8        30.46R
CHARLOTTE      CLEAR     40  29  64 E7        30.46S
$$

VAZ100-171000-
MARINE

STATION/POSITION TIME  TEMP    WIND        PRES    WAVE   SWELL
                       AIR SEA DIR/SP/G            HT/PER HT/PER
                 (UTC) (F)     (DEG/KT/KT) (MB)    (FT/S) (FT/S)
44066 TX TWR #4  0900   40 44   40/ 21/ 25 1034.4S   7/10   3/10
CAPE MAY NJ      0900   37 53   50/  3/  6 1034.8S
LEWES DE         0900   44 48   60/ 13/ 17 1034.2R
15NM E FENWICK I 0900   44 45              1034.0R   5/ 9
OCEAN-CITY-INLET 0900   43 46   80/  9/ 13 1033.9S
WACHAPREAGUE VA  0900   42 53   50/ 13/ 17 1033.5R
THOMAS POINT MD  0900   43 52   70/  8/ 10 1035.8R
GOOSES REEF MD   0900   43     110/ 10/ 12 1035.7R
COVE POINT MD    0900   41      80/  8/ 10 1034.6R
SOLOMONS ISLAND  0900      51                N/A
BISHOPS HEAD MD  0900   42 52   40/  8/ 11 1034.2S
PINEY POINT MD   0900           60/  4/  5   N/A
POTOMAC MD       0900   44      80/ 12/ 16 1033.5R
CAMBRIDGE MD     0900   41 56   50/  7/  8 1034.4F
LEWISETTA VA     0900   45 51   80/ 10/ 13 1034.1R
RAPPAHANNOCK LGT 0900           40/ 13/ 15 1034.3R
STINGRAY PT      0900   45      80/ 16/ 19 1033.6S
YORK RVR RNG VA  0900   44      80/ 17/ 22 1032.9S
YORKTOWN VA      0900   45 54   60/ 16/ 19 1033.5R
JAMESTOWN VA     0900   40      60/  4/  6   N/A
DOMINION TERM VA 0900   43      40/  6/  9 1033.4S
KIPTOPEKE VA     0900      54   70/  5/  8   N/A
CHES BAY BRIDGE  0900   43 51   40/ 16/ 21 1033.0R
CAPE HENRY VA    0900           50/ 18/ 21   N/A
CHESAPEAKE LGHT  0800   43      50/ 17/ 19 1033.2R
WILLOUBY STN VA  0900   44      60/ 15/ 17 1032.5R
S CRANEY ISL VA  0900           40/ 12/ 15 1033.3S
CAPE HENRY BUOY  0900      46                N/A     5/10   2/11
1ST LANDING BUOY 0900      46                N/A     6/ 9   3/ 9
64NM E OF VA BCH 0900   49 50   20/ 23/ 27 1030.1R   8/ 7   3/ 9
DUCK PIER NC     0900   45 48   30/ 25/ 27 1030.1R
44100 DUCK FRF   0900      47                N/A     7/11   2/11
44056 DUCK FRF   0900      48                N/A     7/ 7   2/11
OREGON INLET NC  0900   45 50  360/ 17/ 23 1030.1S
HATTERAS NC      0900   49 56   10/ 16/ 25 1029.1S
CAPE LOOKOUT NC  0900   47      10/ 18/ 24 1029.0R
FRYING PAN SHLS  0900   54 62   50/ 23/ 27 1026.5F   7/ 6   3/ 8
$$



USA.gov is the U.S. government's official web portal to all federal, state and local government web resources and services.